MDT,Max TemperatureF,Mean TemperatureF,Min TemperatureF,Max Dew PointF,MeanDew PointF,Min DewpointF,Max Humidity, Mean Humidity, Min Humidity, Max Sea Level PressureIn, Mean Sea Level PressureIn, Min Sea Level PressureIn, Max VisibilityMiles, Mean VisibilityMiles, Min VisibilityMiles, Max Wind SpeedMPH, Mean Wind SpeedMPH, Max Gust SpeedMPH,PrecipitationIn, CloudCover, Events, WindDirDegrees
2012-10-1,77,56,35,36,32,29,76,47,18,30.31,30.21,30.09,10,10,10,13,2,16,0.00,0,,241
2012-10-2,71,53,34,37,26,12,82,48,13,30.06,29.99,29.92,10,10,10,15,4,18,0.00,0,,265
2012-10-3,55,43,30,19,12,6,54,35,16,30.25,30.17,29.98,10,10,10,15,6,22,0.00,0,,312
2012-10-4,54,38,21,20,16,10,81,50,18,30.26,30.21,30.16,10,10,8,15,5,22,0.00,0,,318
2012-10-5,54,37,20,20,14,-2,91,51,10,30.31,30.25,30.19,10,10,7,16,5,23,0.00,0,,306
2012-10-6,54,36,17,18,13,8,73,45,16,30.33,30.27,30.21,10,8,7,13,3,17,0.00,0,,310
2012-10-7,60,40,20,17,14,10,74,44,14,30.28,30.18,30.09,10,9,7,10,2,16,0.00,0,,269
2012-10-8,64,43,22,23,16,9,74,43,12,30.10,30.03,29.93,10,10,10,10,2,14,0.00,0,,30
2012-10-9,65,46,26,26,22,15,68,44,19,30.12,30.04,30.01,10,10,10,13,2,17,0.00,0,,295
2012-10-10,66,47,28,29,25,21,78,49,20,30.08,29.99,29.92,10,10,10,12,2,16,0.00,0,,263
2012-10-11,69,49,28,29,25,18,78,47,15,30.04,29.96,29.90,10,10,10,9,1,13,0.00,0,,263
2012-10-12,71,50,28,29,24,19,78,46,14,29.95,29.89,29.82,10,10,10,13,2,17,0.00,1,,277
2012-10-13,57,48,39,43,39,25,96,66,36,30.28,30.14,29.90,10,10,10,13,3,16,0.09,7,Rain,276
2012-10-14,62,49,36,41,38,35,100,71,42,30.32,30.21,30.03,10,10,10,16,3,20,0.00,2,,146
2012-10-15,55,49,43,48,44,38,93,80,66,30.09,30.01,29.88,10,10,7,16,6,21,0.41,7,Rain,160
2012-10-16,54,41,28,50,36,14,93,60,26,30.13,29.83,29.65,10,9,2,25,11,37,0.53,4,Rain,224
2012-10-17,48,36,23,26,23,19,92,62,31,30.33,30.25,30.13,10,10,8,10,2,13,0.00,0,,352
2012-10-18,58,41,24,30,25,20,88,56,23,30.40,30.28,30.12,10,10,5,7,1,10,0.00,0,,171
2012-10-19,48,41,33,42,36,30,96,83,70,30.10,29.98,29.80,10,10,8,10,2,14,0.13,6,Rain,4
2012-10-20,47,38,29,42,35,23,100,77,53,29.86,29.79,29.75,10,8,0,23,4,29,0.02,6,Fog-Rain,327
2012-10-21,46,34,21,26,21,16,92,62,31,29.93,29.87,29.81,10,10,10,16,3,20,0.00,0,,185
2012-10-22,34,29,23,32,28,19,100,88,75,29.83,29.62,29.55,10,4,0,12,4,16,0.35,6,Fog-Rain-Snow,164
2012-10-23,31,25,18,28,25,19,100,91,81,30.02,29.83,29.68,10,3,0,16,4,21,0.44,7,Fog-Snow,163
2012-10-24,31,23,15,28,23,10,100,86,72,30.14,30.00,29.92,10,4,0,5,0,6,0.01,8,Fog-Snow,320
2012-10-25,36,28,19,28,26,21,96,80,64,30.47,30.24,30.04,10,5,0,14,2,17,0.08,7,Fog-Snow,256
2012-10-26,30,25,19,28,24,16,100,87,74,30.49,30.27,30.12,10,3,0,12,2,15,0.11,8,Fog-Snow,124
2012-10-27,34,30,25,32,29,25,100,93,85,30.21,30.12,30.06,10,3,0,9,2,12,0.28,8,Fog-Rain-Snow,156
2012-10-28,42,38,33,41,37,32,100,93,86,30.13,30.07,30.03,10,3,0,7,1,8,0.66,8,Fog-Rain,23
2012-10-29,53,45,36,44,39,36,100,86,71,30.19,30.08,30.01,10,4,0,15,4,20,0.11,7,Fog-Rain,49
2012-10-30,58,46,33,42,36,32,100,74,47,30.15,30.12,30.05,10,5,0,13,2,16,0.00,5,Fog,152
2012-10-31,61,46,31,39,35,26,100,66,32,30.06,29.96,29.84,10,10,8,29,3,38,0.00,1,,35